Tracking 20382 objects as of 24-Feb-2020
HD Live streaming from Space Station
objects crossing your sky now
Track the group of recently launched Starlink satellites

COSMOS 660

Track COSMOS 660 now!
10-day predictions
COSMOS 660 is classified as:


NORAD ID: 7337
Int'l Code: 1974-044A
Perigee: 380.4 km
Apogee: 1,157.8 km
Inclination: 82.9 °
Period: 100.1 minutes
Semi major axis: 7140 km
RCS: 2.9855 m2 (large)
Launch date: June 18, 1974
Source: Commonwealth of Independent States (former USSR) (CIS)
Launch site: PLESETSK MISSILE AND SPACE COMPLEX (PKMTR)
aabbcc
Your satellite tracking list
Your tracking list is empty




NASA's NSSDC Master Catalog

Two Line Element Set (TLE):
1  7337U 74044A   20054.93359874 +.00000687 +00000-0 +32324-4 0  9997
2  7337 082.9454 048.3650 0544452 109.4806 256.6023 14.38951881307789
Source of the keplerian elements: AFSPC